Location: Copeville
(33.0796°N, 96.4155°W)
Time: 08:34:10
(UTC+00:00)

UWE-3 - Visible Passes

Search period start: 01 April 2023 00:00
Search period end: 11 April 2023 00:00
Orbit: 579 x 670 km, 97.7° (Epoch: 31 March)

Date Brightness Start Highest point End Pass type
(mag) Time Alt. Az. Time Alt. Az. Time Alt. Az.
01 Apr ? 09:44:26 10° N 09:45:13 15° N 09:45:13 15° N visible
02 Apr ? 10:03:32 10° NNW 10:04:14 14° NNW 10:04:14 14° NNW visible
03 Apr ? 08:45:51 10° NNE 08:45:58 11° NNE 08:45:58 11° NNE visible
03 Apr ? 10:22:59 10° NNW 10:23:14 11° NNW 10:23:14 11° NNW visible
04 Apr ? 09:04:15 10° NNE 09:04:57 14° NNE 09:04:57 14° NNE visible
05 Apr ? 09:22:50 10° N 09:23:55 17° N 09:23:55 17° N visible
06 Apr ? 09:41:38 10° N 09:42:53 18° N 09:42:53 18° N visible
07 Apr ? 10:00:38 10° NNW 10:01:50 16° NNW 10:01:50 16° NNW visible
08 Apr ? 08:43:02 10° NE 08:43:30 13° NE 08:43:30 13° NE visible
08 Apr ? 10:19:58 10° NNW 10:20:45 13° NW 10:20:45 13° NW visible
09 Apr ? 09:01:19 10° NNE 09:02:25 17° NNE 09:02:25 17° NNE visible
10 Apr ? 09:19:49 10° N 09:21:20 21° N 09:21:20 21° N visible
